Location: Bailen
(14.1842°N, 120.7958°E)
Time: 17:43:40
(UTC+00:00)

GPS 2-12 Rocket1 - Pass Details

Date: 12 January 2026
Orbit: 561 x 615 km, 20.0° (Epoch: 16 February)

Event Time Altitude Azimuth Distance (km) Brightness Sun altitude
Exits shadow 20:46:32 87° 334° (NNW) 569 2.7 -23.2°
Maximum altitude 20:46:32 87° 339° (NNW) 569 2.7 -23.2°
Drops below altitude 10° 20:50:55 10° 74° (ENE) 1,873 6.3 -22.2°
Sets 20:53:15 0° 75° (ENE) 2,781 7.3 -21.6°
